Regional Weather Roundup
Issued by NWS

Home | Current Version | Previous Version | Text Only | Print | Product List | Glossary Off
Versions: 1 2 3 4 5 6 7 8 9 10 11 12 13 14 15 16 17 18 19 20 21 22 23 24 25 26 27 28 29 30 31 32 33 34 35 36 37 38 39 40 41 42 43 44

000
ASUS45 KCYS 021110
RWRWY

WYOMING REGIONAL WEATHER ROUNDUP
NATIONAL WEATHER SERVICE CHEYENNE WY
500 AM MDT THU OCT 02 2014

NOTE:  "FAIR" INDICATES FEW OR NO CLOUDS BELOW 12,000 FEET
WITH NO SIGNIFICANT WEATHER AND/OR OBSTRUCTIONS TO VISIBILITY.

WYZ001-021200-
YELLOWSTONE NATIONAL PARK

CITY           SKY/WX    TMP DP  RH WIND       PRES   REMARKS
LK YELLOWSTONE   N/A     31  27  85 VRB5      30.19S WCI  26
W YELLOWSTONE  NOT AVBL

$$
WYZ002>013-054>058-071-098>099-021200-
NORTHERN WYOMING

CITY           SKY/WX    TMP DP  RH WIND       PRES   REMARKS
JACKSON        CLEAR     34  30  86 S5        30.19F WCI  30
CODY           PTCLDY    48  25  40 W8G22     30.03S
GREYBULL       CLEAR     38  36  92 SE3       30.04S
WORLAND        CLEAR     37  34  89 SE6       30.05R WCI  32
SHERIDAN       CLEAR     33  26  75 CALM      30.00R
BUFFALO        CLEAR     37  26  64 W7        30.02S WCI  32
GILLETTE       CLEAR     42  34  73 SW14      30.02R
HULETT         FAIR      36  34  93 SW8       30.02  WCI  29
NEWCASTLE      FAIR      34  34 100 CALM      30.05

$$
WYZ014>020-022>026-101>103-021200-
CENTRAL WYOMING

CITY           SKY/WX    TMP DP  RH WIND       PRES   REMARKS
BIG PINEY      CLEAR     25  21  85 CALM      30.22S
PINEDALE       PTSUNNY   28  28 100 NW5       30.23R WCI  23
DUBOIS         FAIR      34  25  69 N13       30.14S WCI  25
LANDER         CLEAR     37  24  59 SW7       30.09F WCI  32
RIVERTON       CLEAR     35  28  75 SW12      30.10S WCI  27
CASPER         CLEAR     36  32  85 SW12      30.08F WCI  28
DOUGLAS        CLEAR     33  32  96 CALM      30.09S

$$
WYZ021-027>030-104>119-021200-
SOUTHERN WYOMING

CITY           SKY/WX    TMP DP  RH WIND       PRES   REMARKS
EVANSTON       PTCLDY    30  27  88 SW8       30.26S WCI  22
FORT BRIDGER   FAIR      35  30  81 SW14      30.28S WCI  26
ROCK SPRINGS   CLEAR     34  29  82 W17       30.22R WCI  23
DIXON          FAIR      31  30  94 CALM      30.26R
RAWLINS        CLEAR     32  28  85 W12       30.19R WCI  23
SARATOGA       FAIR      32  30  93 SW10      30.20R WCI  24
LARAMIE        PTCLDY    27  26  96 S6        30.14R FOG     WCI  20
CHEYENNE       CLEAR     37  31  78 NW9       30.11R WCI  30
TORRINGTON     CLEAR     37  36  96 W6        30.08R WCI  32
PINE BLUFFS    FAIR      37  36  93 W6        30.10S WCI  33

$$


USA.gov is the U.S. government's official web portal to all federal, state and local government web resources and services.